When you browse on this site, cookies collect data to enhance your experience and personalize the content and advertising you see.
Visit our Privacy Policy to learn more. By continuing to use the site, you agree to this use of cookies and data.
  • In Austria
  • List of Countries
  • For 7 days
  • Water Temperature
  • Weather Map
  • News
  • Weather Widgets
  • user-avatar
    Login

    Hourly Weather Nashavar

    Today, 23 August, Friday

    Time Temperature Precipitation Wind Pressure Humidity
    00:00 +33°C° 0 mm 1 mps 724 mmHg 52%
    01:00 +33°C° 0 mm 1 mps 724 mmHg 53%
    02:00 +32°C° 0 mm 1 mps 724 mmHg 54%
    03:00 +32°C° 0 mm 1 mps 724 mmHg 56%
    04:00 +31°C° 0 mm 1 mps 724 mmHg 57%
    05:00 +31°C° 0 mm 1 mps 724 mmHg 60%
    06:00 +31°C° 0.2 mm 1 mps 725 mmHg 59%
    07:00 +32°C° 0.2 mm 1 mps 725 mmHg 57%
    08:00 +32°C° 0.2 mm 1 mps 725 mmHg 55%
    09:00 +33°C° 0 mm 1 mps 725 mmHg 51%
    10:00 +34°C° 0 mm 1 mps 725 mmHg 48%
    11:00 +36°C° 0 mm 1 mps 725 mmHg 44%
    12:00 +37°C° 0 mm 1 mps 725 mmHg 41%
    13:00 +39°C° 0 mm 1 mps 724 mmHg 38%
    14:00 +39°C° 0 mm 1 mps 724 mmHg 36%
    15:00 +40°C° 0 mm 1 mps 723 mmHg 35%
    16:00 +40°C° 0 mm 2 mps 723 mmHg 34%
    17:00 +40°C° 0 mm 2 mps 723 mmHg 33%
    18:00 +39°C° 0 mm 2 mps 722 mmHg 37%
    19:00 +38°C° 0 mm 2 mps 722 mmHg 41%
    20:00 +37°C° 0 mm 2 mps 722 mmHg 44%
    21:00 +36°C° 0 mm 2 mps 723 mmHg 46%
    22:00 +35°C° 0 mm 1 mps 723 mmHg 48%
    23:00 +34°C° 0 mm 1 mps 723 mmHg 50%

    Tomorrow, 24 August, Saturday

    Time Temperature Precipitation Wind Pressure Humidity
    00:00 +34°C° 0 mm 1 mps 723 mmHg 51%
    01:00 +33°C° 0 mm 1 mps 723 mmHg 52%
    02:00 +33°C° 0 mm 1 mps 723 mmHg 54%
    03:00 +33°C° 0 mm 1 mps 723 mmHg 55%
    04:00 +32°C° 0 mm 1 mps 723 mmHg 56%
    05:00 +32°C° 0 mm 1 mps 723 mmHg 58%
    06:00 +32°C° 0 mm 1 mps 723 mmHg 56%
    07:00 +33°C° 0 mm 1 mps 723 mmHg 53%
    08:00 +33°C° 0 mm 1 mps 724 mmHg 51%
    09:00 +34°C° 0 mm 1 mps 724 mmHg 48%
    10:00 +35°C° 0 mm 1 mps 724 mmHg 45%
    11:00 +37°C° 0 mm 1 mps 724 mmHg 42%
    12:00 +39°C° 0 mm 1 mps 724 mmHg 39%
    13:00 +40°C° 0 mm 1 mps 723 mmHg 36%
    14:00 +41°C° 0 mm 1 mps 723 mmHg 33%
    15:00 +41°C° 0 mm 2 mps 723 mmHg 32%
    16:00 +41°C° 0 mm 2 mps 722 mmHg 31%
    17:00 +41°C° 0 mm 2 mps 722 mmHg 31%
    18:00 +40°C° 0 mm 2 mps 722 mmHg 34%
    19:00 +39°C° 0 mm 2 mps 722 mmHg 38%
    20:00 +37°C° 0 mm 2 mps 722 mmHg 42%
    21:00 +37°C° 0 mm 2 mps 722 mmHg 44%
    22:00 +35°C° 0 mm 1 mps 722 mmHg 46%
    23:00 +35°C° 0 mm 1 mps 722 mmHg 49%

    Day after tomorrow, 25 August, Sunday

    Time Temperature Precipitation Wind Pressure Humidity
    00:00 +34°C° 0 mm 1 mps 722 mmHg 50%
    01:00 +34°C° 0 mm 1 mps 722 mmHg 51%
    02:00 +33°C° 0 mm 1 mps 722 mmHg 52%
    03:00 +33°C° 0 mm 1 mps 722 mmHg 53%
    04:00 +33°C° 0 mm 1 mps 722 mmHg 54%
    05:00 +32°C° 0 mm 1 mps 722 mmHg 56%
    06:00 +33°C° 0 mm 1 mps 723 mmHg 54%
    07:00 +33°C° 0 mm 1 mps 723 mmHg 51%
    08:00 +35°C° 0 mm 2 mps 723 mmHg 49%
    09:00 +36°C° 0 mm 2 mps 723 mmHg 46%
    10:00 +37°C° 0 mm 2 mps 723 mmHg 43%
    11:00 +38°C° 0 mm 2 mps 723 mmHg 40%
    12:00 +39°C° 0 mm 2 mps 723 mmHg 37%
    13:00 +40°C° 0 mm 2 mps 723 mmHg 34%
    14:00 +41°C° 0 mm 2 mps 723 mmHg 32%
    15:00 +41°C° 0 mm 2 mps 723 mmHg 31%
    16:00 +43°C° 0 mm 3 mps 723 mmHg 30%
    17:00 +43°C° 0 mm 3 mps 722 mmHg 29%
    18:00 +40°C° 0 mm 3 mps 723 mmHg 33%
    19:00 +39°C° 0 mm 3 mps 723 mmHg 37%
    20:00 +38°C° 0 mm 2 mps 723 mmHg 41%
    21:00 +37°C° 0 mm 2 mps 723 mmHg 43%
    22:00 +36°C° 0 mm 1 mps 723 mmHg 45%
    23:00 +35°C° 0 mm 1 mps 723 mmHg 47%

    26 August, Monday

    Time Temperature Precipitation Wind Pressure Humidity
    00:00 +34°C° 0.3 mm 1 mps 723 mmHg 50%
    01:00 +34°C° 0.3 mm 1 mps 723 mmHg 52%
    02:00 +33°C° 0.3 mm 1 mps 723 mmHg 55%
    03:00 +32°C° 0.7 mm 1 mps 723 mmHg 59%
    04:00 +31°C° 0.7 mm 1 mps 723 mmHg 63%
    05:00 +30°C° 0.7 mm 1 mps 723 mmHg 66%
    06:00 +31°C° 0.4 mm 1 mps 723 mmHg 66%
    07:00 +31°C° 0.4 mm 1 mps 724 mmHg 66%
    08:00 +31°C° 0.4 mm 1 mps 724 mmHg 66%
    09:00 +32°C° 0.1 mm 2 mps 724 mmHg 63%
    10:00 +34°C° 0.1 mm 2 mps 724 mmHg 59%
    11:00 +35°C° 0.1 mm 2 mps 724 mmHg 56%
    12:00 +37°C° 0 mm 2 mps 724 mmHg 52%
    13:00 +38°C° 0 mm 2 mps 724 mmHg 48%
    14:00 +39°C° 0 mm 2 mps 724 mmHg 45%
    15:00 +39°C° 0 mm 3 mps 723 mmHg 44%
    16:00 +39°C° 0 mm 3 mps 723 mmHg 44%
    17:00 +39°C° 0 mm 3 mps 723 mmHg 43%
    18:00 +38°C° 0 mm 3 mps 723 mmHg 47%
    19:00 +37°C° 0 mm 2 mps 723 mmHg 51%
    20:00 +36°C° 0 mm 2 mps 723 mmHg 55%
    21:00 +35°C° 0.1 mm 1 mps 723 mmHg 56%
    22:00 +34°C° 0.1 mm 1 mps 723 mmHg 57%
    23:00 +32°C° 0.1 mm 0 mps 723 mmHg 58%

    27 August, Tuesday

    Time Temperature Precipitation Wind Pressure Humidity
    00:00 +31°C° 0.3 mm 0 mps 723 mmHg 59%
    01:00 +33°C° 0.3 mm 1 mps 723 mmHg 61%
    02:00 +33°C° 0.3 mm 1 mps 722 mmHg 62%
    03:00 +32°C° 0.8 mm 1 mps 722 mmHg 64%
    04:00 +29°C° 0.8 mm 0 mps 723 mmHg 66%
    05:00 +29°C° 0.8 mm 0 mps 723 mmHg 68%
    06:00 +29°C° 0.4 mm 0 mps 723 mmHg 66%
    07:00 +32°C° 0.4 mm 1 mps 723 mmHg 64%
    08:00 +32°C° 0.4 mm 1 mps 723 mmHg 62%
    09:00 +34°C° 0 mm 1 mps 724 mmHg 57%
    10:00 +35°C° 0 mm 1 mps 724 mmHg 53%
    11:00 +36°C° 0 mm 1 mps 724 mmHg 48%
    12:00 +37°C° 0 mm 1 mps 724 mmHg 45%
    13:00 +39°C° 0 mm 2 mps 723 mmHg 42%
    14:00 +40°C° 0 mm 2 mps 723 mmHg 39%
    15:00 +40°C° 0 mm 2 mps 723 mmHg 38%
    16:00 +40°C° 0 mm 2 mps 722 mmHg 38%
    17:00 +40°C° 0 mm 3 mps 722 mmHg 38%
    18:00 +39°C° 0 mm 2 mps 722 mmHg 41%
    19:00 +38°C° 0 mm 2 mps 723 mmHg 45%
    20:00 +37°C° 0 mm 2 mps 723 mmHg 48%
    21:00 +37°C° 0 mm 2 mps 723 mmHg 50%
    22:00 +35°C° 0 mm 1 mps 723 mmHg 52%
    23:00 +35°C° 0 mm 1 mps 724 mmHg 54%

    28 August, Wednesday

    Time Temperature Precipitation Wind Pressure Humidity
    00:00 +34°C° 0.2 mm 1 mps 723 mmHg 56%
    01:00 +34°C° 0.2 mm 1 mps 723 mmHg 58%
    02:00 +34°C° 0.2 mm 2 mps 723 mmHg 60%
    03:00 +32°C° 0.6 mm 1 mps 723 mmHg 63%
    04:00 +32°C° 0.6 mm 1 mps 723 mmHg 65%
    05:00 +31°C° 0.6 mm 1 mps 723 mmHg 67%
    06:00 +32°C° 0.2 mm 1 mps 724 mmHg 65%
    07:00 +32°C° 0.2 mm 1 mps 724 mmHg 62%
    08:00 +33°C° 0.2 mm 1 mps 725 mmHg 59%
    09:00 +34°C° 0 mm 1 mps 725 mmHg 55%
    10:00 +35°C° 0 mm 1 mps 725 mmHg 51%
    11:00 +37°C° 0 mm 1 mps 725 mmHg 47%
    12:00 +39°C° 0 mm 1 mps 724 mmHg 44%
    13:00 +40°C° 0 mm 2 mps 724 mmHg 41%
    14:00 +40°C° 0 mm 2 mps 724 mmHg 38%
    15:00 +41°C° 0 mm 2 mps 723 mmHg 38%
    16:00 +42°C° 0 mm 3 mps 723 mmHg 37%
    17:00 +42°C° 0 mm 3 mps 722 mmHg 37%
    18:00 +40°C° 0 mm 3 mps 722 mmHg 41%
    19:00 +39°C° 0 mm 2 mps 722 mmHg 44%
    20:00 +37°C° 0 mm 2 mps 723 mmHg 48%
    21:00 +37°C° 0 mm 2 mps 723 mmHg 50%
    22:00 +36°C° 0 mm 1 mps 723 mmHg 51%
    23:00 +35°C° 0 mm 1 mps 723 mmHg 53%
    Show more